Theta_e
300 300 300 300 300 300 301 301 301 301 302 303 303 304 305 306 309 310 312 316 314 321 319 313 315 317 317 318 318 318 311 311 312 313 316 319 322 326 327 326 326 328 323 322 322
301 301 300 300 300 300 301 301 301 301 301 302 302 303 303 304 306 311 319 318 316 317 318 313 316 318 318 318 318 314 309 312 313 313 316 319 324 324 327 326 325 326 327 324 330
301 301 301 301 300 300 300 301 301 301 301 301 301 302 303 303 305 316 317 317 317 317 315 313 316 317 317 317 316 314 313 315 315 316 318 319 326 328 327 329 331 331 330 327 333
301 301 301 301 301 301 301 301 301 301 300 300 300 301 302 303 307 320 317 316 316 315 313 312 316 318 315 314 316 316 316 316 316 321 322 318 326 327 329 330 333 333 334 335 334
300 300 300 300 300 301 301 301 301 301 300 300 300 300 301 305 307 309 311 314 316 315 315 313 314 318 315 314 315 316 316 319 320 322 323 323 324 324 328 331 332 330 330 332 333
300 300 300 299 299 299 301 301 301 301 300 300 299 299 301 311 309 315 316 316 316 315 315 315 314 318 317 316 317 318 319 319 319 320 322 323 323 323 322 329 331 329 328 327 329
300 300 300 299 299 299 299 300 301 301 300 300 299 299 300 304 306 306 314 317 316 316 316 315 315 316 317 316 318 319 317 316 317 320 321 322 322 322 322 327 331 329 328 328 327
300 300 300 300 300 300 300 300 301 301 300 300 299 301 303 305 305 307 307 309 316 316 317 315 318 319 318 319 319 318 317 317 317 321 322 321 319 321 322 323 330 329 328 326 325
298 298 299 299 300 300 300 300 300 300 301 300 300 306 306 308 312 314 314 310 314 316 316 318 319 319 319 318 316 317 318 318 319 320 321 321 320 320 322 325 328 329 327 325 324
298 297 297 298 299 300 299 300 301 301 301 301 312 313 309 309 313 316 314 314 314 315 316 316 318 315 314 315 319 318 319 321 321 321 321 321 320 320 322 324 326 328 326 325 323
296 296 296 296 297 299 301 301 308 313 311 315 315 312 310 311 312 315 315 315 314 314 316 318 317 318 315 315 317 318 319 319 319 320 322 321 320 320 321 326 327 327 324 323 322
294 295 296 296 296 299 306 307 306 306 308 309 308 310 313 311 318 314 316 314 314 313 314 317 318 318 316 316 317 318 319 319 318 318 320 321 318 318 322 325 326 325 323 322 322
294 294 298 295 296 301 305 307 308 308 310 311 308 309 309 310 314 314 313 314 313 313 313 315 319 318 318 318 319 319 319 319 318 318 319 319 318 321 322 324 324 323 321 322 322
294 294 295 297 297 300 303 309 309 310 312 311 312 309 309 309 309 307 307 309 314 314 312 312 314 318 319 319 319 320 319 319 320 320 319 319 320 318 321 323 322 320 320 321 321
294 294 294 300 297 297 301 302 308 313 301 305 309 309 310 309 310 310 309 307 313 313 312 314 316 317 319 319 320 320 320 320 322 321 319 319 321 319 322 325 322 320 321 321 321
294 296 296 298 298 297 303 302 311 312 308 309 312 311 310 310 311 313 309 311 311 314 313 312 314 315 318 319 319 320 320 320 320 319 322 324 324 321 319 323 324 321 322 322 321
295 298 300 297 298 299 302 304 311 311 308 306 310 314 314 310 310 311 311 309 311 314 315 314 313 314 316 317 317 318 318 320 322 323 322 326 326 323 321 319 324 324 321 324 323
298 299 299 297 298 299 301 304 310 310 307 308 308 308 307 306 313 311 311 311 309 311 314 316 317 315 316 316 318 318 318 320 324 324 326 326 324 323 320 319 321 325 325 322 324
299 299 300 299 298 300 301 302 301 305 308 308 307 308 307 310 311 313 313 312 311 310 315 316 316 316 316 317 317 318 319 319 324 326 325 325 324 321 319 319 319 322 325 324 323
300 300 299 299 298 300 301 300 301 302 303 304 305 308 309 309 310 313 314 315 314 312 312 316 317 316 316 316 316 319 319 321 322 327 328 325 325 324 320 320 319 317 324 325 325
300 301 301 300 299 301 300 299 301 300 301 304 304 305 306 307 309 311 313 313 313 315 312 313 316 317 317 317 316 319 320 322 322 323 325 322 320 317 319 320 318 317 320 324 325
300 302 302 302 301 301 302 301 301 302 302 303 304 303 304 304 306 308 310 312 312 314 315 313 315 316 317 317 317 317 319 321 323 324 322 320 320 319 317 317 317 316 320 323 325
301 300 301 301 302 302 302 303 302 302 302 304 305 306 306 307 307 306 311 312 314 315 315 314 315 318 318 317 317 318 318 319 322 321 324 322 321 319 318 319 320 318 319 320 322
299 300 301 302 302 302 302 303 304 303 304 303 303 304 305 306 307 308 310 313 314 313 315 315 316 316 318 317 318 320 320 319 321 321 321 321 320 319 319 318 318 320 320 320 321
299 299 302 302 303 302 302 303 304 304 303 304 305 304 304 306 306 307 309 315 313 313 316 317 316 317 317 317 318 318 319 319 320 320 320 319 320 319 319 318 318 320 319 320 321
299 301 301 301 302 304 303 303 303 304 303 304 304 304 304 304 305 306 309 315 314 313 314 316 317 317 317 317 319 320 319 318 319 318 319 320 319 319 320 319 317 319 320 320 321
300 300 302 302 302 302 303 303 304 304 304 304 304 304 305 304 304 305 307 314 315 315 313 316 317 316 316 318 319 319 318 319 319 319 318 318 317 316 315 314 315 318 319 320 321
Wind_Speed
19 18 18 21 19 19 20 19 19 20 21 22 24 25 24 27 25 24 26 13 7 6 5 6 4 2 7 6 8 5 2 5 7 5 7 11 0 9 10 8 2 3 2 6 10
20 21 20 19 22 21 19 20 19 20 20 22 22 23 22 25 27 24 9 6 6 6 7 9 7 5 9 6 3 4 3 7 9 10 7 6 2 11 5 5 2 4 7 13 7
21 22 23 23 21 22 22 20 19 20 21 20 21 22 19 22 23 1 3 5 2 6 9 9 10 10 9 12 6 4 6 12 22 23 14 5 3 3 12 2 2 2 4 12 7
22 22 22 23 24 22 22 21 21 19 20 20 20 22 18 18 6 5 6 6 6 7 9 11 9 4 3 4 6 1 13 15 12 4 3 2 5 5 6 5 2 4 4 10 8
24 23 24 24 25 25 23 23 21 19 20 20 19 20 21 11 22 18 22 12 10 11 11 12 12 8 5 4 9 6 5 13 8 4 2 3 1 5 13 12 7 3 7 7 3
18 22 23 27 27 26 25 24 22 20 20 19 19 19 17 10 8 5 7 13 15 13 15 14 12 11 10 10 3 7 12 18 9 12 3 2 2 5 10 15 10 4 4 4 2
16 18 20 22 24 27 28 27 25 21 18 20 18 20 20 35 16 18 13 15 16 14 16 18 17 11 7 10 13 10 7 9 10 7 4 2 4 5 9 15 11 7 4 2 1
17 18 19 20 23 25 26 28 27 23 19 20 20 15 17 26 20 25 23 28 21 16 18 16 12 15 13 12 9 6 3 3 6 4 4 8 9 8 7 14 13 10 8 4 2
17 18 19 20 22 25 26 25 24 21 21 19 18 10 18 12 10 5 8 29 22 17 17 18 18 20 11 2 5 2 6 6 9 9 4 5 8 7 11 14 18 15 11 7 3
17 18 20 20 22 25 28 22 14 14 15 12 8 7 19 21 7 10 12 14 22 11 16 18 11 5 3 4 9 6 4 4 7 4 5 4 11 3 13 15 18 18 12 8 9
18 18 19 20 21 24 27 15 5 1 1 11 9 16 16 14 17 9 7 10 19 12 8 6 4 14 12 10 12 9 10 12 10 12 6 7 9 9 15 14 14 16 14 14 14
18 17 18 19 18 19 13 10 7 12 16 26 30 36 41 34 17 23 12 8 12 11 7 5 16 16 9 7 11 14 15 17 12 7 6 5 10 7 12 20 29 28 21 19 19
18 17 17 18 17 11 13 7 13 20 8 19 30 31 42 31 29 35 18 9 6 12 11 14 9 15 12 12 13 17 15 15 8 5 4 4 5 4 6 11 15 19 25 25 26
18 17 15 17 14 10 9 7 12 14 5 6 9 13 23 14 10 36 44 23 8 14 11 11 17 15 10 15 14 13 12 7 5 2 2 2 5 4 5 9 14 21 26 29 27
18 16 13 13 16 10 14 13 9 3 5 4 6 4 9 18 4 16 34 28 18 9 9 10 15 17 18 19 12 14 19 6 4 3 3 6 1 6 8 8 13 18 27 34 34
18 15 11 14 17 9 14 9 1 1 10 6 3 6 6 14 5 2 11 10 17 7 9 11 16 7 12 11 15 19 4 4 4 2 2 3 1 6 5 10 19 21 29 37 41
17 14 13 14 16 5 14 6 2 5 5 5 3 6 6 6 5 2 3 10 7 8 15 7 19 13 6 5 8 6 5 1 3 2 5 3 3 8 10 6 19 24 34 39 44
15 14 16 19 16 9 6 2 9 8 14 14 13 21 8 9 7 6 5 5 12 6 4 13 9 16 10 17 6 8 9 6 6 4 4 4 5 6 5 17 18 29 37 40 40
13 17 23 19 16 9 4 5 8 4 5 6 11 6 6 5 8 12 8 16 8 18 8 7 15 5 18 12 8 7 5 9 6 0 3 3 5 8 6 4 2 13 27 32 40
16 19 27 14 17 15 7 11 6 9 13 11 5 4 5 9 10 11 6 5 7 12 17 5 4 12 12 9 13 13 8 4 1 7 4 4 5 5 5 4 4 6 21 32 42
19 13 12 13 21 17 13 9 6 18 20 5 7 9 11 11 8 7 7 20 7 8 13 17 2 5 2 7 10 3 4 3 6 6 6 3 6 6 9 4 5 7 22 36 36
23 7 13 24 16 10 15 10 9 12 15 7 5 14 16 10 9 8 13 9 29 23 14 11 11 13 15 6 3 4 10 10 5 5 3 5 6 4 9 8 9 9 14 21 30
21 14 22 36 10 14 13 16 26 19 13 5 5 6 2 4 6 14 9 15 18 13 7 7 9 3 11 7 5 5 5 6 5 5 9 6 5 5 6 9 13 10 12 20 21
11 5 15 31 14 18 19 18 15 14 20 22 17 18 11 12 13 10 10 8 12 22 39 11 6 21 17 2 3 3 5 14 13 7 7 7 7 6 7 10 10 25 21 21 19
20 7 11 9 15 16 16 11 22 18 20 14 9 20 18 7 5 16 14 6 2 14 13 7 5 6 7 10 10 12 14 9 17 9 11 9 11 9 8 9 14 24 24 16 18
14 8 10 2 19 18 22 16 21 13 14 15 24 17 8 13 16 17 13 4 4 10 12 9 4 2 6 10 11 6 23 19 4 4 9 7 9 9 13 14 10 19 24 23 18
34 23 17 14 13 14 18 19 18 18 21 28 16 13 11 18 26 27 20 7 5 3 9 6 4 3 5 4 10 6 10 14 6 6 5 6 9 5 6 8 16 22 18 18 18
Wind_Direction
301 301 304 306 307 309 312 313 315 316 314 313 314 314 318 314 309 309 310 304 235 227 255 274 243 171 240 253 236 251 70 274 264 269 267 286 231 75 102 125 210 199 247 271 346
294 295 296 298 302 305 308 310 314 317 317 317 316 315 320 316 314 315 316 336 209 244 264 254 231 278 277 254 269 133 136 252 245 270 251 258 134 129 159 195 257 251 291 251 267
292 291 293 294 295 298 302 305 310 313 315 320 318 315 322 317 321 199 43 10 286 260 262 240 232 281 258 271 233 195 212 267 277 271 264 301 49 113 149 16 296 23 300 219 223
294 293 292 291 292 292 294 298 303 307 310 315 318 315 320 312 283 241 230 320 279 244 253 238 238 260 289 273 268 289 258 256 283 259 35 348 150 115 72 156 134 88 183 186 206
299 299 295 293 290 290 290 291 294 299 302 306 311 314 318 292 265 276 255 260 247 248 239 233 230 247 239 249 306 197 268 307 269 268 91 169 216 149 145 131 136 121 134 160 214
313 309 305 300 297 292 287 286 285 289 294 298 303 303 305 279 314 248 241 226 242 249 242 229 226 229 287 272 248 304 314 300 301 298 300 163 200 170 152 145 145 141 89 58 218
329 327 324 320 315 304 293 286 283 282 288 290 292 295 286 267 286 277 245 234 225 247 260 236 241 244 279 299 282 316 321 314 306 297 264 165 295 230 153 151 157 143 79 88 136
322 323 328 325 326 320 306 290 281 283 281 279 281 286 267 289 284 256 239 241 225 239 246 234 238 258 259 284 316 346 316 291 265 275 211 125 271 271 189 154 152 161 144 146 173
314 319 323 328 329 328 322 307 284 278 270 270 276 264 268 277 263 325 280 243 224 223 243 247 257 256 255 30 354 316 252 249 301 221 137 148 258 246 198 166 157 168 155 133 224
307 315 320 324 331 332 330 321 296 269 263 265 241 265 257 258 265 277 286 261 220 231 236 248 239 187 111 110 240 226 226 272 255 275 201 175 251 201 214 181 176 168 155 166 180
302 306 313 321 331 334 334 350 346 311 243 237 244 233 268 278 278 261 355 229 213 223 206 222 200 222 197 195 241 266 276 268 269 266 189 234 254 213 172 165 169 188 162 176 179
294 300 306 314 326 337 352 26 11 326 297 273 264 258 259 257 292 254 248 215 198 219 131 248 233 229 196 202 237 254 261 272 271 250 162 252 254 241 172 185 183 179 177 184 184
290 293 302 308 319 326 352 344 331 332 265 281 257 252 245 244 239 244 238 222 199 220 189 209 230 204 203 220 236 250 251 261 249 302 237 230 289 184 192 170 183 186 184 182 190
284 288 294 302 310 325 343 277 300 329 282 262 233 250 216 223 256 237 241 223 213 216 204 229 247 256 229 227 226 256 246 243 271 59 262 45 282 255 196 160 182 181 187 192 197
281 281 278 289 292 323 308 288 296 158 310 237 233 253 195 172 208 217 222 203 211 196 174 215 215 210 229 230 233 243 249 234 239 261 59 329 19 271 120 204 201 198 193 197 198
283 279 274 261 274 302 305 297 355 85 248 294 200 165 126 216 265 353 162 191 206 234 269 225 254 189 216 228 230 242 212 53 38 72 329 334 161 276 205 208 201 205 200 195 198
273 269 256 247 260 283 300 345 178 213 294 254 270 20 293 171 226 308 121 190 176 181 227 251 244 252 248 271 264 195 116 264 332 345 232 280 274 242 272 238 192 197 202 199 199
266 254 248 242 250 277 340 52 231 244 237 313 320 331 313 328 286 212 228 201 227 245 179 211 240 213 209 211 222 201 174 155 209 201 247 272 243 249 215 278 210 205 198 197 196
257 245 245 238 228 218 204 211 223 200 283 1 352 326 302 45 16 11 241 229 206 205 198 192 235 251 216 212 205 222 173 185 124 34 102 251 291 291 311 347 111 194 187 190 200
249 254 250 235 211 193 212 237 235 243 292 332 332 300 312 357 349 25 314 304 248 206 208 232 287 224 234 185 231 197 165 94 325 164 197 269 249 236 278 215 299 200 187 196 204
242 247 250 211 197 204 218 222 243 255 269 250 260 254 277 313 308 337 278 304 279 286 196 219 170 285 201 208 205 181 164 131 144 149 165 206 262 219 203 254 224 219 184 200 203
234 231 200 191 189 212 227 216 280 276 298 255 290 262 259 267 277 280 271 237 302 309 268 203 213 238 245 265 241 276 208 175 161 208 168 166 263 239 188 211 246 260 205 191 196
226 223 184 188 208 215 223 228 242 248 269 284 261 237 127 294 260 225 257 283 305 341 286 193 213 167 241 261 209 198 215 209 149 122 194 165 252 247 219 309 277 241 265 211 200
215 193 190 211 213 215 218 229 227 224 241 244 253 265 291 281 272 267 271 296 322 319 316 271 170 211 224 235 148 183 274 219 193 196 189 195 222 262 231 216 243 255 244 204 215
207 210 195 202 217 212 216 231 226 233 227 233 250 236 236 253 285 261 263 318 329 322 318 276 232 194 233 220 263 269 272 265 211 194 195 215 205 217 239 242 242 236 225 212 201
211 186 198 225 208 211 216 218 231 222 216 234 237 249 264 230 226 274 305 242 277 348 336 306 273 176 210 214 234 225 265 253 245 229 213 200 217 216 231 250 252 225 205 206 204
217 217 214 208 207 204 219 217 224 226 244 244 243 253 251 243 244 246 273 250 165 255 285 293 297 146 245 207 225 229 229 273 233 234 191 204 222 215 253 234 226 216 219 217 210